Location: Heisede
(52.2582°N, 9.8523°E)
Time: 23:55:06
(UTC+00:00)

Cosmos 2084 Rocket - Pass Details

Date: 13 January 2026
Orbit: 541 x 571 km, 62.8° (Epoch: 18 February)

Event Time Altitude Azimuth Distance (km) Brightness Sun altitude
Exits shadow 06:03:50 14° 318° (NW) 1,623 5.2 -11.8°
Maximum altitude 06:07:23 62° 38° (NE) 646 3.7 -11.2°
Drops below altitude 10° 06:11:35 10° 120° (ESE) 1,874 7.6 -10.6°
Sets 06:13:50 0° 124° (ESE) 2,770 8.8 -10.3°
